Weather History for KESC - November, 2011

Change the Weather History Date:

Wednesday, November 16, 2011

  Actual Average Record
Temperature  
Mean Temperature 30 °F -  
Max Temperature 37 °F 41 °F 69 °F (1953)
Min Temperature 21 °F 29 °F 3 °F (1959)
Degree Days  
Heating Degree Days 35    
Moisture  
Dew Point 16 °F    
Average Humidity 52    
Maximum Humidity 68    
Minimum Humidity 38    
Precipitation  
Precipitation 0.00 in - - ()
Sea Level Pressure  
Sea Level Pressure 29.85 in    
Wind  
Wind Speed 10 mph (West)    
Max Wind Speed 20 mph    
Max Gust Speed 25 mph    
Visibility 10 miles    
Events      
Averages and records for this station are not official NWS values.
T = Trace of Precipitation, MM = Missing Value Source: NWS Daily Summary

Daily Weather History Graph

Daily Weather History Graph

Search for Another Location

Airport or City:

Trip Planner

Search our weather history database for the weather conditions in past years. The results will help you decide how hot, cold, wet, or windy it might be!

Date:

Astronomy

Nov. 16, 2011 Rise Set
Actual Time 7:49 AM EST 5:16 PM EST
Civil Twilight 7:16 AM EST 5:48 PM EST
Nautical Twilight 6:40 AM EST 6:25 PM EST
Astronomical Twilight 6:05 AM EST 7:00 PM EST
Moon 10:32 PM EST (11/16) 12:23 PM EST (11/16)
Length of Visible Light 10h 32m
Length of Day
9h 27m
Waning Gibbous, 70% of the Moon is Illuminated
Nov 16
Waning Gibbous
Nov 18
Last Quarter
Nov 25
New
Dec 2
First Quarter
Dec 10
Full

Hourly Weather History & Observations

Time (EST) Temp. Windchill Dew Point Humidity Pressure Visibility Wind Dir Wind Speed Gust Speed Precip Events Conditions
12:15 AM 37.4 °F 29.3 °F 23.0 °F 56% 29.68 in 10.0 mi West 12.7 mph 18.4 mph N/A   Clear
12:35 AM 35.6 °F 28.0 °F 23.0 °F 60% 29.69 in 10.0 mi West 10.4 mph - N/A   Clear
1:35 AM 33.8 °F 27.0 °F 21.2 °F 60% 29.69 in 10.0 mi West 8.1 mph - N/A   Clear
2:15 AM 35.6 °F 27.1 °F 21.2 °F 56% 29.70 in 10.0 mi West 12.7 mph 21.9 mph N/A   Clear
2:35 AM 33.8 °F 24.8 °F 19.4 °F 56% 29.71 in 10.0 mi West 12.7 mph 16.1 mph N/A   Clear
2:55 AM 33.8 °F 26.4 °F 19.4 °F 56% 29.72 in 10.0 mi West 9.2 mph - N/A   Clear
3:15 AM 32.0 °F 25.6 °F 17.6 °F 55% 29.72 in 10.0 mi WSW 6.9 mph - N/A   Clear
3:35 AM 32.0 °F 23.6 °F 17.6 °F 55% 29.71 in 10.0 mi WSW 10.4 mph - N/A   Clear
3:55 AM 32.0 °F 25.6 °F 17.6 °F 55% 29.72 in 10.0 mi WSW 6.9 mph - N/A   Clear
4:15 AM 32.0 °F 25.6 °F 17.6 °F 55% 29.72 in 10.0 mi WSW 6.9 mph - N/A   Clear
4:55 AM 30.2 °F 20.8 °F 17.6 °F 60% 29.72 in 10.0 mi SW 11.5 mph - N/A   Clear
5:15 AM 30.2 °F 21.3 °F 17.6 °F 60% 29.73 in 10.0 mi SW 10.4 mph - N/A   Clear
5:35 AM 30.2 °F 21.9 °F 17.6 °F 60% 29.74 in 10.0 mi SW 9.2 mph - N/A   Clear
5:55 AM 30.2 °F 21.3 °F 17.6 °F 60% 29.74 in 10.0 mi SW 10.4 mph - N/A   Clear
7:15 AM 30.2 °F 20.8 °F 17.6 °F 60% 29.76 in 10.0 mi WSW 11.5 mph - N/A   Clear
7:35 AM 30.2 °F 20.2 °F 17.6 °F 60% 29.76 in 10.0 mi WSW 12.7 mph - N/A   Clear
7:55 AM 28.4 °F 18.0 °F 17.6 °F 64% 29.77 in 10.0 mi West 12.7 mph - N/A   Clear
9:15 AM 33.8 °F 24.3 °F 19.4 °F 56% 29.80 in 10.0 mi West 13.8 mph - N/A   Clear
9:55 AM 35.6 °F 26.2 °F 19.4 °F 52% 29.82 in 10.0 mi NW 15.0 mph 25.3 mph N/A   Mostly Cloudy
10:15 AM 35.6 °F 28.0 °F 17.6 °F 48% 29.84 in 10.0 mi WNW 10.4 mph - N/A   Overcast
10:35 AM 35.6 °F 26.6 °F 17.6 °F 48% 29.84 in 10.0 mi West 13.8 mph 18.4 mph N/A   Overcast
11:15 AM 35.6 °F 24.8 °F 17.6 °F 48% 29.85 in 10.0 mi West 19.6 mph 24.2 mph N/A   Overcast
11:35 AM 35.6 °F 27.1 °F 17.6 °F 48% 29.86 in 10.0 mi WNW 12.7 mph 18.4 mph N/A   Mostly Cloudy
11:55 AM 35.6 °F 26.6 °F 17.6 °F 48% 29.87 in 10.0 mi WNW 13.8 mph 23.0 mph N/A   Mostly Cloudy
12:15 PM 37.4 °F 28.2 °F 17.6 °F 45% 29.86 in 10.0 mi West 16.1 mph 24.2 mph N/A   Overcast
12:35 PM 35.6 °F 27.5 °F 17.6 °F 48% 29.86 in 10.0 mi WNW 11.5 mph 24.2 mph N/A   Overcast
12:55 PM 35.6 °F 27.5 °F 17.6 °F 48% 29.87 in 10.0 mi WNW 11.5 mph 20.7 mph N/A   Overcast
1:15 PM 35.6 °F 25.9 °F 15.8 °F 44% 29.86 in 10.0 mi WNW 16.1 mph - N/A   Overcast
1:35 PM 35.6 °F 27.5 °F 14.0 °F 41% 29.88 in 10.0 mi WNW 11.5 mph - N/A   Partly Cloudy
1:55 PM 37.4 °F 28.5 °F 15.8 °F 41% 29.87 in 10.0 mi West 15.0 mph 19.6 mph N/A   Mostly Cloudy
2:15 PM 35.6 °F 25.9 °F 15.8 °F 44% 29.88 in 10.0 mi West 16.1 mph - N/A   Scattered Clouds
2:55 PM 35.6 °F 26.2 °F 14.0 °F 41% 29.89 in 10.0 mi WNW 15.0 mph 25.3 mph N/A   Partly Cloudy
3:15 PM 35.6 °F 26.6 °F 14.0 °F 41% 29.89 in 10.0 mi West 13.8 mph 18.4 mph N/A   Clear
3:35 PM 35.6 °F 26.6 °F 14.0 °F 41% 29.90 in 10.0 mi West 13.8 mph 23.0 mph N/A   Clear
3:55 PM 35.6 °F 26.6 °F 12.2 °F 38% 29.90 in 10.0 mi West 13.8 mph - N/A   Clear
4:15 PM 35.6 °F 25.9 °F 12.2 °F 38% 29.90 in 10.0 mi WNW 16.1 mph - N/A   Clear
5:15 PM 33.8 °F 30.8 °F 10.4 °F 38% 29.94 in 10.0 mi NW 3.5 mph - N/A   Clear
5:35 PM 30.2 °F - 10.4 °F 44% 29.94 in 10.0 mi Calm Calm - N/A   Clear
6:15 PM 26.6 °F - 14.0 °F 59% 29.95 in 10.0 mi Calm Calm - N/A   Scattered Clouds
6:35 PM 26.6 °F 22.6 °F 14.0 °F 59% 29.96 in 10.0 mi West 3.5 mph - N/A   Mostly Cloudy
6:55 PM 26.6 °F 20.0 °F 15.8 °F 64% 29.96 in 10.0 mi WSW 5.8 mph - N/A   Overcast
7:15 PM 28.4 °F 24.6 °F 14.0 °F 55% 29.96 in 10.0 mi WNW 3.5 mph - N/A   Overcast
7:35 PM 26.6 °F 20.0 °F 15.8 °F 64% 29.97 in 10.0 mi West 5.8 mph - N/A   Scattered Clouds
8:15 PM 28.4 °F 21.2 °F 12.2 °F 51% 29.97 in 10.0 mi West 6.9 mph - N/A   Mostly Cloudy
8:35 PM 28.4 °F 22.2 °F 10.4 °F 47% 29.97 in 10.0 mi West 5.8 mph - N/A   Overcast
8:55 PM 28.4 °F 22.2 °F 10.4 °F 47% 29.97 in 10.0 mi West 5.8 mph - N/A   Scattered Clouds
9:15 PM 28.4 °F 22.2 °F 10.4 °F 47% 29.98 in 10.0 mi West 5.8 mph - N/A   Partly Cloudy
10:15 PM 28.4 °F 24.6 °F 10.4 °F 47% 29.98 in 10.0 mi NNW 3.5 mph - N/A   Clear
10:35 PM 26.6 °F 22.6 °F 10.4 °F 51% 29.98 in 10.0 mi NNW 3.5 mph - N/A   Clear
10:55 PM 24.8 °F - 12.2 °F 59% 29.98 in 10.0 mi Calm Calm - N/A   Mostly Cloudy
11:15 PM 23.0 °F - 10.4 °F 59% 29.97 in 10.0 mi Calm Calm - N/A   Mostly Cloudy
11:35 PM 23.0 °F 18.4 °F 12.2 °F 63% 29.97 in 10.0 mi West 3.5 mph - N/A   Overcast
11:55 PM 21.2 °F - 12.2 °F 68% 29.97 in 10.0 mi Calm Calm - N/A   Scattered Clouds